| time (UTC) | temp F | wind direction | speed MPH | gust MPH | rain 1hr in | rain 24hr in | rain mn in | humidity % | barometer mb |
| 20260509135003 | 58 | 90 | 3.0 | 9.0 | 0.00 | 0.00 | 0.00 | 56 | 1019.5 |
| 20260509134506 | 59 | 330 | 4.0 | 8.0 | 0.00 | 0.00 | 0.00 | 59 | 1017.7 |
| 20260509134006 | 58 | 336 | 4.0 | 8.0 | 0.00 | 0.00 | 0.00 | 61 | 1017.8 |
| 20260509134003 | 58 | 30 | 4.0 | 8.0 | 0.00 | 0.00 | 0.00 | 57 | 1019.7 |
| 20260509133506 | 57 | 117 | 4.0 | 8.0 | 0.00 | 0.00 | 0.00 | 63 | 1017.8 |
| 20260509133503 | 58 | 84 | 4.0 | 8.0 | 0.00 | 0.00 | 0.00 | 58 | 1019.7 |
| 20260509133003 | 57 | 122 | 4.0 | 5.0 | 0.00 | 0.00 | 0.00 | 60 | 1019.5 |
| 20260509132506 | 57 | 150 | 3.0 | 4.0 | 0.00 | 0.00 | 0.00 | 65 | 1017.9 |
| 20260509132503 | 56 | 111 | 2.0 | 4.0 | 0.00 | 0.00 | 0.00 | 61 | 1019.7 |
| 20260509132006 | 56 | 311 | 3.0 | 5.0 | 0.00 | 0.00 | 0.00 | 65 | 1017.8 |
| 20260509132003 | 56 | 34 | 3.0 | 4.0 | 0.00 | 0.00 | 0.00 | 60 | 1019.9 |
| 20260509131502 | 56 | 59 | 4.0 | 6.0 | 0.00 | 0.00 | 0.00 | 63 | 1019.6 |
| 20260509131006 | 56 | 328 | 5.0 | 7.0 | 0.00 | 0.00 | 0.00 | 67 | 1018.1 |
| 20260509131002 | 56 | 50 | 4.0 | 6.0 | 0.00 | 0.00 | 0.00 | 65 | 1019.8 |
| 20260509130506 | 56 | 322 | 5.0 | 8.0 | 0.00 | 0.00 | 0.00 | 67 | 1018.0 |
| 20260509130503 | 56 | 57 | 5.0 | 8.0 | 0.00 | 0.00 | 0.00 | 65 | 1020.0 |
| 20260509130011 | 56 | 57 | 6.0 | 8.0 | 0.00 | 0.00 | 0.00 | 65 | 1019.9 |
| 20260509130005 | 56 | 330 | 6.0 | 8.0 | 0.00 | 0.00 | 0.00 | 67 | 1018.1 |
| 20260509125506 | 55 | 340 | 6.0 | 8.0 | 0.00 | 0.00 | 0.00 | 69 | 1018.1 |
| 20260509125503 | 55 | 60 | 6.0 | 8.0 | 0.00 | 0.00 | 0.00 | 65 | 1020.0 |
| 20260509125005 | 55 | 73 | 6.0 | 8.0 | 0.00 | 0.00 | 0.00 | 69 | 1018.0 |
| 20260509125003 | 55 | 82 | 5.0 | 8.0 | 0.00 | 0.00 | 0.00 | 66 | 1020.1 |
| 20260509124505 | 55 | 95 | 5.0 | 8.0 | 0.00 | 0.00 | 0.00 | 69 | 1018.2 |
| 20260509124502 | 54 | 62 | 5.0 | 8.0 | 0.00 | 0.00 | 0.00 | 66 | 1020.2 |
| 20260509124006 | 55 | 359 | 5.0 | 8.0 | 0.00 | 0.00 | 0.00 | 70 | 1018.2 |
| 20260509124003 | 54 | 44 | 4.0 | 8.0 | 0.00 | 0.00 | 0.00 | 65 | 1020.2 |
| 20260509123505 | 54 | 319 | 4.0 | 8.0 | 0.00 | 0.00 | 0.00 | 71 | 1018.3 |
| 20260509123502 | 54 | 38 | 3.0 | 7.0 | 0.00 | 0.00 | 0.00 | 65 | 1020.2 |
| 20260509123005 | 54 | 280 | 3.0 | 4.0 | 0.00 | 0.00 | 0.00 | 71 | 1018.4 |
| 20260509123003 | 55 | 264 | 3.0 | 4.0 | 0.00 | 0.00 | 0.00 | 65 | 1020.2 |
| 20260509122503 | 55 | 195 | 3.0 | 4.0 | 0.00 | 0.00 | 0.00 | 65 | 1020.2 |
| 20260509122003 | 56 | 137 | 3.0 | 4.0 | 0.00 | 0.00 | 0.00 | 66 | 1020.3 |
| 20260509121505 | 54 | 83 | 3.0 | 4.0 | 0.00 | 0.00 | 0.00 | 74 | 1018.3 |
| 20260509121503 | 56 | 129 | 2.0 | 4.0 | 0.00 | 0.00 | 0.00 | 72 | 1020.3 |
| 20260509121006 | 54 | 2 | 4.0 | 4.0 | 0.00 | 0.00 | 0.00 | 74 | 1018.4 |
| 20260509121003 | 54 | 116 | 2.0 | 4.0 | 0.00 | 0.00 | 0.00 | 73 | 1020.4 |
| 20260509120506 | 53 | 2 | 4.0 | 4.0 | 0.00 | 0.00 | 0.00 | 75 | 1018.5 |
| 20260509120502 | 53 | 59 | 3.0 | 4.0 | 0.00 | 0.00 | 0.00 | 73 | 1020.4 |
| 20260509120009 | 53 | 43 | 3.0 | 4.0 | 0.00 | 0.00 | 0.00 | 73 | 1020.4 |
| 20260509120006 | 53 | 27 | 3.0 | 4.0 | 0.00 | 0.00 | 0.00 | 75 | 1018.6 |
| 20260509115505 | 53 | 100 | 3.0 | 4.0 | 0.00 | 0.00 | 0.00 | 76 | 1018.5 |
| 20260509115503 | 54 | 97 | 3.0 | 4.0 | 0.00 | 0.00 | 0.00 | 73 | 1020.3 |
| 20260509115006 | 53 | 49 | 3.0 | 4.0 | 0.00 | 0.00 | 0.00 | 77 | 1018.5 |
| 20260509115003 | 53 | 82 | 3.0 | 4.0 | 0.00 | 0.00 | 0.00 | 75 | 1020.4 |
| 20260509114506 | 53 | 75 | 3.0 | 7.0 | 0.00 | 0.00 | 0.00 | 78 | 1018.4 |
| 20260509114503 | 53 | 90 | 3.0 | 7.0 | 0.00 | 0.00 | 0.00 | 76 | 1020.1 |
| 20260509114005 | 53 | 133 | 4.0 | 7.0 | 0.00 | 0.00 | 0.00 | 79 | 1018.5 |
| 20260509113506 | 53 | 327 | 4.0 | 6.0 | 0.00 | 0.00 | 0.00 | 80 | 1018.6 |
| 20260509113502 | 52 | 45 | 4.0 | 5.0 | 0.00 | 0.00 | 0.00 | 79 | 1020.5 |
| 20260509113005 | 52 | 350 | 4.0 | 6.0 | 0.00 | 0.00 | 0.00 | 81 | 1018.5 |
| 20260509113003 | 52 | 40 | 4.0 | 6.0 | 0.00 | 0.00 | 0.00 | 80 | 1020.4 |
| 20260509112505 | 52 | 349 | 5.0 | 7.0 | 0.00 | 0.00 | 0.00 | 81 | 1018.6 |
| 20260509112503 | 51 | 37 | 4.0 | 7.0 | 0.00 | 0.00 | 0.00 | 81 | 1020.6 |
| 20260509112006 | 52 | 340 | 6.0 | 8.0 | 0.00 | 0.00 | 0.00 | 82 | 1018.5 |
| 20260509112003 | 51 | 34 | 5.0 | 8.0 | 0.00 | 0.00 | 0.00 | 81 | 1020.5 |
| 20260509111505 | 51 | 348 | 5.0 | 8.0 | 0.00 | 0.00 | 0.00 | 83 | 1018.5 |
| 20260509111503 | 51 | 19 | 4.0 | 8.0 | 0.00 | 0.00 | 0.00 | 81 | 1020.5 |
| 20260509111005 | 51 | 345 | 5.0 | 7.0 | 0.00 | 0.00 | 0.00 | 83 | 1018.6 |
| 20260509111002 | 51 | 2 | 4.0 | 6.0 | 0.00 | 0.00 | 0.00 | 82 | 1020.7 |
| 20260509110506 | 51 | 340 | 5.0 | 7.0 | 0.00 | 0.00 | 0.00 | 83 | 1018.6 |
| 20260509110503 | 51 | 5 | 5.0 | 7.0 | 0.00 | 0.00 | 0.00 | 82 | 1020.7 |
| 20260509110009 | 51 | 35 | 6.0 | 9.0 | 0.00 | 0.00 | 0.00 | 82 | 1020.7 |
| 20260509110006 | 51 | 342 | 6.0 | 10.0 | 0.00 | 0.00 | 0.00 | 83 | 1018.7 |
| 20260509105506 | 51 | 345 | 7.0 | 10.0 | 0.00 | 0.00 | 0.00 | 83 | 1018.6 |
| 20260509105502 | 51 | 29 | 7.0 | 9.0 | 0.00 | 0.00 | 0.00 | 82 | 1020.6 |
| 20260509105006 | 51 | 338 | 7.0 | 10.0 | 0.00 | 0.00 | 0.00 | 83 | 1018.7 |
| 20260509104503 | 51 | 24 | 6.0 | 9.0 | 0.00 | 0.00 | 0.00 | 83 | 1020.7 |
| 20260509104006 | 51 | 330 | 7.0 | 9.0 | 0.00 | 0.00 | 0.00 | 84 | 1018.5 |
| 20260509104002 | 51 | 337 | 7.0 | 9.0 | 0.00 | 0.00 | 0.00 | 83 | 1020.7 |
| 20260509103506 | 51 | 343 | 7.0 | 9.0 | 0.00 | 0.00 | 0.00 | 84 | 1018.6 |
| 20260509103503 | 51 | 342 | 7.0 | 8.0 | 0.00 | 0.00 | 0.00 | 84 | 1020.6 |
| 20260509103005 | 51 | 347 | 5.0 | 9.0 | 0.00 | 0.00 | 0.00 | 84 | 1018.6 |
| 20260509102506 | 51 | 348 | 3.0 | 6.0 | 0.00 | 0.00 | 0.00 | 85 | 1018.6 |
| 20260509102503 | 51 | 356 | 3.0 | 8.0 | 0.00 | 0.00 | 0.00 | 85 | 1020.6 |
| 20260509102006 | 52 | 350 | 4.0 | 6.0 | 0.00 | 0.00 | 0.00 | 86 | 1018.6 |
| 20260509102003 | 51 | 347 | 3.0 | 5.0 | 0.00 | 0.00 | 0.00 | 85 | 1020.5 |
| 20260509101505 | 52 | 314 | 3.0 | 4.0 | 0.00 | 0.00 | 0.00 | 86 | 1018.6 |
| 20260509101502 | 51 | 4 | 3.0 | 4.0 | 0.00 | 0.00 | 0.00 | 86 | 1020.6 |
| 20260509101005 | 51 | 299 | 2.0 | 4.0 | 0.00 | 0.00 | 0.00 | 87 | 1018.5 |
| 20260509101003 | 51 | 343 | 4.0 | 5.0 | 0.00 | 0.00 | 0.00 | 87 | 1020.5 |
| 20260509100506 | 51 | 287 | 2.0 | 4.0 | 0.00 | 0.00 | 0.00 | 87 | 1018.7 |
| 20260509100006 | 51 | 308 | 3.0 | 4.0 | 0.00 | 0.00 | 0.00 | 87 | 1018.5 |
| 20260509095503 | 50 | 9 | 3.0 | 6.0 | 0.00 | 0.00 | 0.00 | 87 | 1020.6 |
| 20260509095006 | 50 | 349 | 4.0 | 6.0 | 0.00 | 0.00 | 0.00 | 87 | 1018.6 |
| 20260509095003 | 50 | 19 | 4.0 | 6.0 | 0.00 | 0.00 | 0.00 | 87 | 1020.7 |
| 20260509094505 | 50 | 358 | 4.0 | 7.0 | 0.00 | 0.00 | 0.00 | 86 | 1018.7 |
| 20260509094503 | 50 | 343 | 4.0 | 7.0 | 0.00 | 0.00 | 0.00 | 87 | 1020.6 |
| 20260509094006 | 50 | 327 | 4.0 | 7.0 | 0.00 | 0.00 | 0.00 | 86 | 1018.6 |
| 20260509094003 | 50 | 332 | 4.0 | 7.0 | 0.00 | 0.00 | 0.00 | 87 | 1020.9 |
| 20260509093506 | 50 | 321 | 4.0 | 7.0 | 0.00 | 0.00 | 0.00 | 85 | 1018.4 |
| 20260509093503 | 50 | 4 | 4.0 | 6.0 | 0.00 | 0.00 | 0.00 | 86 | 1020.7 |
| 20260509093005 | 50 | 318 | 5.0 | 6.0 | 0.00 | 0.00 | 0.00 | 85 | 1018.6 |
| 20260509093002 | 50 | 352 | 5.0 | 6.0 | 0.00 | 0.00 | 0.00 | 85 | 1020.7 |
| 20260509092506 | 51 | 331 | 5.0 | 7.0 | 0.00 | 0.00 | 0.00 | 85 | 1018.6 |
| 20260509092503 | 50 | 334 | 5.0 | 7.0 | 0.00 | 0.00 | 0.00 | 84 | 1020.6 |
| 20260509092003 | 51 | 339 | 5.0 | 7.0 | 0.00 | 0.00 | 0.00 | 84 | 1020.6 |
| 20260509091505 | 51 | 338 | 5.0 | 7.0 | 0.00 | 0.00 | 0.00 | 85 | 1018.7 |
| 20260509091502 | 51 | 349 | 5.0 | 7.0 | 0.00 | 0.00 | 0.00 | 84 | 1020.5 |
| 20260509091005 | 52 | 337 | 5.0 | 8.0 | 0.00 | 0.00 | 0.00 | 85 | 1018.5 |
| 20260509091003 | 51 | 16 | 5.0 | 8.0 | 0.00 | 0.00 | 0.00 | 84 | 1020.5 |
| 20260509090506 | 51 | 322 | 5.0 | 8.0 | 0.00 | 0.00 | 0.00 | 86 | 1018.4 |
| 20260509090503 | 51 | 13 | 4.0 | 8.0 | 0.00 | 0.00 | 0.00 | 85 | 1020.4 |
| 20260509090009 | 51 | 321 | 3.0 | 5.0 | 0.00 | 0.00 | 0.00 | 86 | 1020.3 |
| 20260509090006 | 51 | 306 | 3.0 | 5.0 | 0.00 | 0.00 | 0.00 | 86 | 1018.3 |
| 20260509085505 | 51 | 314 | 3.0 | 4.0 | 0.00 | 0.00 | 0.00 | 86 | 1018.4 |
| 20260509085503 | 51 | 301 | 3.0 | 4.0 | 0.00 | 0.00 | 0.00 | 86 | 1020.3 |
| 20260509085006 | 51 | 348 | 5.0 | 7.0 | 0.00 | 0.00 | 0.00 | 86 | 1018.3 |
| 20260509084505 | 51 | 341 | 4.0 | 7.0 | 0.00 | 0.00 | 0.00 | 86 | 1018.3 |
| 20260509084502 | 51 | 6 | 3.0 | 7.0 | 0.00 | 0.00 | 0.00 | 86 | 1020.2 |
| 20260509084003 | 51 | 27 | 3.0 | 5.0 | 0.00 | 0.00 | 0.00 | 86 | 1020.1 |
| 20260509083506 | 51 | 334 | 4.0 | 4.0 | 0.00 | 0.00 | 0.00 | 86 | 1018.3 |
| 20260509083502 | 51 | 358 | 4.0 | 5.0 | 0.00 | 0.00 | 0.00 | 86 | 1020.5 |
| 20260509083003 | 51 | 290 | 4.0 | 4.0 | 0.00 | 0.00 | 0.00 | 87 | 1020.3 |
| 20260509082502 | 51 | 288 | 4.0 | 5.0 | 0.00 | 0.00 | 0.00 | 87 | 1020.3 |
| 20260509082006 | 51 | 302 | 4.0 | 5.0 | 0.00 | 0.00 | 0.00 | 86 | 1018.1 |
| 20260509081503 | 50 | 347 | 4.0 | 5.0 | 0.00 | 0.00 | 0.00 | 86 | 1020.2 |
| 20260509081005 | 51 | 353 | 4.0 | 5.0 | 0.00 | 0.00 | 0.00 | 86 | 1018.2 |
| 20260509080505 | 50 | 354 | 3.0 | 4.0 | 0.00 | 0.00 | 0.00 | 86 | 1018.1 |
| 20260509080503 | 50 | 335 | 3.0 | 4.0 | 0.00 | 0.00 | 0.00 | 86 | 1020.1 |
| 20260509080009 | 50 | 352 | 4.0 | 6.0 | 0.00 | 0.00 | 0.00 | 87 | 1020.3 |
| 20260509080006 | 50 | 320 | 4.0 | 6.0 | 0.00 | 0.00 | 0.00 | 86 | 1018.2 |
| 20260509075505 | 50 | 304 | 4.0 | 6.0 | 0.00 | 0.00 | 0.00 | 87 | 1018.1 |
| 20260509075503 | 50 | 338 | 4.0 | 6.0 | 0.00 | 0.00 | 0.00 | 87 | 1020.1 |
| 20260509075005 | 50 | 301 | 3.0 | 5.0 | 0.00 | 0.00 | 0.00 | 86 | 1018.1 |
| 20260509075003 | 50 | 321 | 3.0 | 4.0 | 0.00 | 0.00 | 0.00 | 87 | 1020.2 |
| 20260509074506 | 50 | 303 | 3.0 | 4.0 | 0.00 | 0.00 | 0.00 | 86 | 1018.0 |
| 20260509074503 | 50 | 349 | 3.0 | 4.0 | 0.00 | 0.00 | 0.00 | 87 | 1020.4 |
| 20260509074005 | 51 | 298 | 2.0 | 5.0 | 0.00 | 0.00 | 0.00 | 87 | 1018.1 |
| 20260509074002 | 50 | 1 | 3.0 | 5.0 | 0.00 | 0.00 | 0.00 | 87 | 1020.4 |
| 20260509073505 | 50 | 323 | 3.0 | 5.0 | 0.00 | 0.00 | 0.00 | 87 | 1018.0 |
| 20260509073502 | 50 | 358 | 4.0 | 6.0 | 0.00 | 0.00 | 0.00 | 88 | 1020.3 |
| 20260509073006 | 50 | 337 | 4.0 | 5.0 | 0.00 | 0.00 | 0.00 | 87 | 1018.1 |
| 20260509072505 | 50 | 313 | 4.0 | 5.0 | 0.00 | 0.00 | 0.00 | 88 | 1018.1 |
| 20260509072503 | 49 | 326 | 3.0 | 4.0 | 0.00 | 0.00 | 0.00 | 88 | 1020.1 |
| 20260509072005 | 49 | 304 | 3.0 | 4.0 | 0.00 | 0.00 | 0.00 | 87 | 1018.0 |
| 20260509072003 | 49 | 324 | 3.0 | 4.0 | 0.00 | 0.00 | 0.00 | 88 | 1020.2 |
| 20260509071506 | 50 | 325 | 3.0 | 4.0 | 0.00 | 0.00 | 0.00 | 87 | 1018.0 |
| 20260509071502 | 49 | 321 | 3.0 | 6.0 | 0.00 | 0.00 | 0.00 | 88 | 1020.1 |
| 20260509071005 | 50 | 329 | 4.0 | 7.0 | 0.00 | 0.00 | 0.00 | 87 | 1017.8 |
| 20260509071003 | 49 | 333 | 3.0 | 6.0 | 0.00 | 0.00 | 0.00 | 88 | 1020.0 |
| 20260509070505 | 50 | 324 | 4.0 | 7.0 | 0.00 | 0.00 | 0.00 | 86 | 1017.8 |
| 20260509070008 | 49 | 2 | 2.0 | 4.0 | 0.00 | 0.00 | 0.00 | 88 | 1019.9 |
| 20260509070006 | 50 | 318 | 3.0 | 4.0 | 0.00 | 0.00 | 0.00 | 86 | 1017.8 |
| 20260509065505 | 50 | 311 | 3.0 | 4.0 | 0.00 | 0.00 | 0.00 | 86 | 1017.9 |
| 20260509065005 | 50 | 321 | 3.0 | 6.0 | 0.00 | 0.00 | 0.00 | 86 | 1017.9 |
| 20260509065002 | 49 | 352 | 3.0 | 6.0 | 0.00 | 0.00 | 0.00 | 88 | 1019.8 |
| 20260509064506 | 50 | 336 | 5.0 | 8.0 | 0.00 | 0.00 | 0.00 | 87 | 1017.9 |
| 20260509064503 | 49 | 14 | 4.0 | 8.0 | 0.00 | 0.00 | 0.00 | 88 | 1019.8 |
| 20260509064005 | 50 | 349 | 5.0 | 8.0 | 0.00 | 0.00 | 0.00 | 87 | 1017.9 |
| 20260509063005 | 50 | 315 | 3.0 | 5.0 | 0.00 | 0.00 | 0.00 | 88 | 1017.8 |
| 20260509063003 | 49 | 345 | 3.0 | 4.0 | 0.00 | 0.00 | 0.00 | 89 | 1019.7 |
| 20260509062506 | 50 | 327 | 5.0 | 8.0 | 0.00 | 0.00 | 0.00 | 88 | 1017.8 |
| 20260509062502 | 49 | 2 | 4.0 | 8.0 | 0.00 | 0.00 | 0.00 | 89 | 1019.9 |
| 20260509062005 | 50 | 330 | 5.0 | 8.0 | 0.00 | 0.00 | 0.00 | 89 | 1017.7 |
| 20260509062003 | 49 | 2 | 5.0 | 8.0 | 0.00 | 0.00 | 0.00 | 91 | 1019.8 |
| 20260509061503 | 49 | 354 | 5.0 | 5.0 | 0.00 | 0.00 | 0.00 | 92 | 1019.7 |
| 20260509061006 | 50 | 149 | 4.0 | 5.0 | 0.00 | 0.00 | 0.00 | 90 | 1017.7 |
| 20260509060505 | 50 | 164 | 4.0 | 4.0 | 0.00 | 0.00 | 0.00 | 93 | 1017.7 |
| 20260509060503 | 49 | 11 | 3.0 | 5.0 | 0.00 | 0.00 | 0.00 | 94 | 1019.7 |
| 20260509060008 | 49 | 24 | 3.0 | 6.0 | 0.00 | 0.00 | 0.00 | 94 | 1019.7 |
| 20260509060006 | 50 | 356 | 4.0 | 5.0 | 0.00 | 0.00 | 0.00 | 93 | 1017.7 |
| 20260509055505 | 49 | 3 | 4.0 | 5.0 | 0.00 | 0.00 | 0.00 | 93 | 1017.6 |
| 20260509055006 | 49 | 344 | 4.0 | 6.0 | 0.00 | 0.00 | 0.00 | 94 | 1017.7 |
| 20260509055002 | 49 | 29 | 3.0 | 6.0 | 0.00 | 0.00 | 0.00 | 96 | 1019.7 |
| 20260509054505 | 49 | 339 | 4.0 | 6.0 | 0.00 | 0.00 | 0.00 | 94 | 1017.6 |
| 20260509054503 | 49 | 31 | 3.0 | 6.0 | 0.00 | 0.00 | 0.00 | 97 | 1019.6 |
| 20260509054005 | 49 | 325 | 4.0 | 6.0 | 0.00 | 0.00 | 0.00 | 95 | 1017.7 |
| 20260509054003 | 49 | 30 | 3.0 | 6.0 | 0.00 | 0.00 | 0.00 | 97 | 1019.5 |
| 20260509053502 | 49 | 21 | 4.0 | 6.0 | 0.00 | 0.00 | 0.00 | 98 | 1019.8 |
| 20260509053005 | 49 | 339 | 4.0 | 8.0 | 0.00 | 0.00 | 0.00 | 96 | 1017.5 |
| 20260509053003 | 49 | 8 | 4.0 | 6.0 | 0.00 | 0.00 | 0.00 | 99 | 1019.7 |
| 20260509052505 | 49 | 334 | 5.0 | 7.0 | 0.00 | 0.00 | 0.00 | 96 | 1017.6 |
| 20260509052502 | 48 | 354 | 5.0 | 7.0 | 0.00 | 0.00 | 0.00 | 99 | 1019.7 |
| 20260509052003 | 48 | 357 | 4.0 | 7.0 | 0.00 | 0.00 | 0.00 | 99 | 1019.8 |
| 20260509051506 | 48 | 332 | 3.0 | 7.0 | 0.00 | 0.00 | 0.00 | 97 | 1017.5 |
| 20260509051005 | 48 | 316 | 4.0 | 7.0 | 0.00 | 0.00 | 0.00 | 97 | 1017.4 |
| 20260509051002 | 48 | 341 | 4.0 | 7.0 | 0.00 | 0.00 | 0.00 | 99 | 1019.9 |
| 20260509050505 | 48 | 331 | 4.0 | 6.0 | 0.00 | 0.00 | 0.00 | 97 | 1017.3 |
| 20260509050503 | 48 | 343 | 4.0 | 6.0 | 0.00 | 0.00 | 0.00 | 99 | 1019.6 |
| 20260509050009 | 47 | 3 | 4.0 | 7.0 | 0.00 | 0.00 | 0.00 | 99 | 1019.6 |
| 20260509050006 | 48 | 344 | 5.0 | 7.0 | 0.00 | 0.00 | 0.00 | 98 | 1017.4 |
| 20260509045505 | 48 | 338 | 5.0 | 7.0 | 0.00 | 0.00 | 0.00 | 98 | 1017.5 |
| 20260509045503 | 47 | 356 | 5.0 | 7.0 | 0.00 | 0.00 | 0.00 | 99 | 1019.7 |
| 20260509045005 | 48 | 336 | 4.0 | 7.0 | 0.00 | 0.00 | 0.00 | 98 | 1017.3 |
| 20260509045003 | 47 | 336 | 4.0 | 6.0 | 0.00 | 0.00 | 0.00 | 99 | 1019.7 |
| 20260509044506 | 47 | 336 | 3.0 | 7.0 | 0.00 | 0.00 | 0.00 | 98 | 1017.4 |
| 20260509044503 | 47 | 335 | 3.0 | 6.0 | 0.00 | 0.00 | 0.00 | 99 | 1019.6 |
| 20260509044003 | 47 | 335 | 3.0 | 4.0 | 0.00 | 0.00 | 0.00 | 99 | 1019.4 |
| 20260509043505 | 47 | 331 | 3.0 | 5.0 | 0.00 | 0.00 | 0.00 | 98 | 1017.1 |
| 20260509043006 | 47 | 321 | 2.0 | 3.0 | 0.00 | 0.00 | 0.00 | 99 | 1017.1 |
| 20260509043003 | 47 | 348 | 2.0 | 4.0 | 0.00 | 0.00 | 0.00 | 99 | 1019.4 |
| 20260509042505 | 47 | 319 | 2.0 | 3.0 | 0.00 | 0.00 | 0.00 | 99 | 1017.2 |
| 20260509042003 | 47 | 357 | 2.0 | 4.0 | 0.00 | 0.00 | 0.00 | 99 | 1019.4 |
| 20260509041506 | 47 | 345 | 3.0 | 4.0 | 0.00 | 0.00 | 0.00 | 99 | 1017.2 |
| 20260509041502 | 47 | 4 | 3.0 | 4.0 | 0.00 | 0.00 | 0.00 | 99 | 1019.4 |
| 20260509041006 | 47 | 320 | 2.0 | 4.0 | 0.00 | 0.00 | 0.00 | 99 | 1017.0 |
| 20260509041003 | 47 | 16 | 3.0 | 4.0 | 0.00 | 0.00 | 0.00 | 99 | 1019.5 |
| 20260509040505 | 47 | 310 | 3.0 | 5.0 | 0.00 | 0.00 | 0.00 | 99 | 1017.2 |
| 20260509040502 | 47 | 9 | 2.0 | 3.0 | 0.00 | 0.00 | 0.00 | 99 | 1019.4 |
| 20260509040009 | 47 | 339 | 3.0 | 5.0 | 0.00 | 0.00 | 0.00 | 99 | 1019.5 |
| 20260509040006 | 47 | 327 | 3.0 | 5.0 | 0.00 | 0.00 | 0.00 | 99 | 1017.0 |
| 20260509035505 | 47 | 343 | 3.0 | 5.0 | 0.00 | 0.00 | 0.00 | 99 | 1017.0 |
| 20260509035502 | 47 | 347 | 3.0 | 5.0 | 0.00 | 0.00 | 0.00 | 99 | 1019.4 |
| 20260509035003 | 47 | 1 | 3.0 | 4.0 | 0.00 | 0.00 | 0.00 | 99 | 1019.3 |
| 20260509034503 | 47 | 347 | 2.0 | 4.0 | 0.00 | 0.00 | 0.00 | 99 | 1019.3 |
| 20260509034006 | 47 | 310 | 1.0 | 3.0 | 0.00 | 0.00 | 0.00 | 98 | 1017.0 |
| 20260509034003 | 47 | 316 | 2.0 | 4.0 | 0.00 | 0.00 | 0.00 | 99 | 1019.2 |
| 20260509033505 | 47 | 340 | 0.0 | 2.0 | 0.00 | 0.00 | 0.00 | 98 | 1017.0 |
| 20260509033503 | 47 | 312 | 1.0 | 2.0 | 0.00 | 0.00 | 0.00 | 99 | 1019.3 |
| 20260509033006 | 48 | 327 | 0.0 | 2.0 | 0.00 | 0.00 | 0.00 | 98 | 1017.0 |
| 20260509033002 | 47 | 339 | 1.0 | 2.0 | 0.00 | 0.00 | 0.00 | 99 | 1019.4 |
| 20260509032506 | 48 | 334 | 0.0 | 2.0 | 0.00 | 0.00 | 0.00 | 98 | 1017.0 |
| 20260509032503 | 47 | 349 | 1.0 | 3.0 | 0.00 | 0.00 | 0.00 | 99 | 1019.5 |
| 20260509032003 | 47 | 350 | 1.0 | 3.0 | 0.00 | 0.00 | 0.00 | 99 | 1019.3 |
| 20260509031505 | 48 | 346 | 0.0 | 2.0 | 0.00 | 0.00 | 0.00 | 98 | 1016.9 |
| 20260509031503 | 47 | 314 | 1.0 | 2.0 | 0.00 | 0.00 | 0.00 | 99 | 1019.3 |
| 20260509031006 | 48 | 346 | 0.0 | 2.0 | 0.00 | 0.00 | 0.00 | 98 | 1017.0 |
| 20260509031003 | 47 | 317 | 1.0 | 2.0 | 0.00 | 0.00 | 0.00 | 99 | 1019.0 |
| 20260509030502 | 47 | 311 | 1.0 | 2.0 | 0.00 | 0.00 | 0.00 | 99 | 1019.3 |
| 20260509030009 | 47 | 330 | 1.0 | 2.0 | 0.00 | 0.00 | 0.00 | 99 | 1019.2 |
| 20260509030006 | 48 | 0 | 0.0 | 0.0 | 0.00 | 0.00 | 0.00 | 98 | 1017.0 |
| 20260509025506 | 48 | 324 | 1.0 | 2.0 | 0.00 | 0.00 | 0.00 | 98 | 1017.1 |
| 20260509025503 | 47 | 351 | 1.0 | 2.0 | 0.00 | 0.00 | 0.00 | 99 | 1019.3 |
| 20260509025005 | 48 | 327 | 1.0 | 2.0 | 0.00 | 0.00 | 0.00 | 98 | 1017.1 |
| 20260509024506 | 48 | 300 | 1.0 | 2.0 | 0.00 | 0.00 | 0.00 | 98 | 1017.1 |
| 20260509024502 | 47 | 2 | 1.0 | 2.0 | 0.00 | 0.00 | 0.00 | 99 | 1019.2 |
| 20260509024005 | 48 | 298 | 1.0 | 2.0 | 0.00 | 0.00 | 0.00 | 98 | 1017.1 |
| 20260509024003 | 47 | 345 | 1.0 | 3.0 | 0.00 | 0.00 | 0.00 | 99 | 1019.3 |
| 20260509023505 | 48 | 315 | 1.0 | 3.0 | 0.00 | 0.00 | 0.00 | 98 | 1017.0 |
| 20260509023503 | 47 | 338 | 2.0 | 3.0 | 0.00 | 0.00 | 0.00 | 99 | 1019.5 |
| 20260509023006 | 48 | 320 | 1.0 | 3.0 | 0.00 | 0.00 | 0.00 | 98 | 1017.0 |
| 20260509023003 | 47 | 323 | 2.0 | 3.0 | 0.00 | 0.00 | 0.00 | 99 | 1019.1 |
| 20260509022505 | 48 | 0 | 0.0 | 0.0 | 0.00 | 0.00 | 0.00 | 98 | 1017.1 |
| 20260509022503 | 47 | 307 | 1.0 | 2.0 | 0.00 | 0.00 | 0.00 | 99 | 1019.4 |
| 20260509022006 | 48 | 0 | 0.0 | 0.0 | 0.00 | 0.00 | 0.00 | 98 | 1017.1 |
| 20260509022003 | 47 | 292 | 1.0 | 2.0 | 0.00 | 0.00 | 0.00 | 99 | 1019.3 |
| 20260509021503 | 47 | 282 | 2.0 | 2.0 | 0.00 | 0.00 | 0.00 | 99 | 1019.3 |
| 20260509021005 | 48 | 0 | 0.0 | 0.0 | 0.00 | 0.00 | 0.00 | 98 | 1017.3 |
| 20260509021003 | 47 | 286 | 1.0 | 2.0 | 0.00 | 0.00 | 0.00 | 99 | 1019.4 |
| 20260509020506 | 48 | 0 | 0.0 | 0.0 | 0.00 | 0.00 | 0.00 | 98 | 1017.2 |
| 20260509020503 | 47 | 269 | 1.0 | 3.0 | 0.00 | 0.00 | 0.00 | 99 | 1019.4 |
| 20260509020009 | 47 | 268 | 2.0 | 3.0 | 0.00 | 0.00 | 0.00 | 99 | 1019.3 |
| 20260509020006 | 48 | 0 | 0.0 | 0.0 | 0.00 | 0.00 | 0.00 | 98 | 1017.2 |
| 20260509015506 | 48 | 0 | 0.0 | 0.0 | 0.00 | 0.00 | 0.00 | 97 | 1017.4 |
| 20260509015502 | 47 | 274 | 2.0 | 2.0 | 0.00 | 0.00 | 0.00 | 99 | 1019.3 |
| 20260509015006 | 48 | 0 | 0.0 | 0.0 | 0.00 | 0.00 | 0.00 | 97 | 1017.1 |
| 20260509015003 | 47 | 269 | 1.0 | 2.0 | 0.00 | 0.00 | 0.00 | 99 | 1019.3 |
| 20260509014505 | 48 | 0 | 0.0 | 0.0 | 0.00 | 0.00 | 0.00 | 97 | 1017.0 |
| 20260509014005 | 48 | 0 | 0.0 | 0.0 | 0.00 | 0.00 | 0.00 | 97 | 1017.1 |
| 20260509014003 | 48 | 240 | 1.0 | 2.0 | 0.00 | 0.00 | 0.00 | 99 | 1019.3 |
| 20260509013506 | 48 | 0 | 0.0 | 0.0 | 0.00 | 0.00 | 0.00 | 97 | 1017.1 |
| 20260509013503 | 48 | 270 | 1.0 | 2.0 | 0.00 | 0.00 | 0.00 | 99 | 1019.4 |
| 20260509013005 | 48 | 0 | 0.0 | 0.0 | 0.00 | 0.00 | 0.00 | 96 | 1017.2 |
| 20260509013002 | 48 | 258 | 1.0 | 2.0 | 0.00 | 0.00 | 0.00 | 99 | 1019.5 |
| 20260509012506 | 48 | 0 | 0.0 | 0.0 | 0.00 | 0.00 | 0.00 | 96 | 1017.0 |
| 20260509012503 | 48 | 255 | 1.0 | 2.0 | 0.00 | 0.00 | 0.00 | 99 | 1019.4 |
| 20260509012006 | 48 | 0 | 0.0 | 0.0 | 0.00 | 0.00 | 0.00 | 96 | 1017.1 |
| 20260509011505 | 48 | 0 | 0.0 | 0.0 | 0.00 | 0.00 | 0.00 | 96 | 1017.2 |
| 20260509011502 | 48 | 248 | 1.0 | 2.0 | 0.00 | 0.00 | 0.00 | 99 | 1019.1 |
| 20260509010506 | 48 | 0 | 0.0 | 0.0 | 0.00 | 0.00 | 0.00 | 96 | 1017.0 |
| 20260509010502 | 48 | 265 | 1.0 | 2.0 | 0.00 | 0.00 | 0.00 | 99 | 1019.3 |
| 20260509005505 | 48 | 0 | 0.0 | 0.0 | 0.00 | 0.00 | 0.00 | 96 | 1017.2 |
| 20260509005502 | 48 | 260 | 1.0 | 2.0 | 0.00 | 0.00 | 0.00 | 99 | 1019.1 |
| 20260509005006 | 48 | 0 | 0.0 | 0.0 | 0.00 | 0.00 | 0.00 | 96 | 1017.2 |
| 20260509005003 | 48 | 258 | 1.0 | 2.0 | 0.00 | 0.00 | 0.00 | 99 | 1019.2 |
| 20260509004505 | 48 | 0 | 0.0 | 0.0 | 0.00 | 0.00 | 0.00 | 96 | 1017.3 |
| 20260509004005 | 48 | 0 | 0.0 | 0.0 | 0.00 | 0.00 | 0.00 | 96 | 1017.2 |
| 20260509004003 | 48 | 268 | 2.0 | 2.0 | 0.00 | 0.00 | 0.00 | 99 | 1019.3 |
| 20260509003506 | 48 | 0 | 0.0 | 0.0 | 0.00 | 0.00 | 0.00 | 96 | 1017.2 |
| 20260509003503 | 48 | 306 | 1.0 | 2.0 | 0.00 | 0.00 | 0.00 | 99 | 1019.3 |
| 20260509003006 | 48 | 0 | 0.0 | 0.0 | 0.00 | 0.00 | 0.00 | 96 | 1017.3 |
| 20260509003003 | 48 | 281 | 0.0 | 2.0 | 0.00 | 0.00 | 0.00 | 99 | 1019.4 |
| 20260509002505 | 48 | 0 | 0.0 | 0.0 | 0.00 | 0.00 | 0.00 | 96 | 1017.2 |
| 20260509002503 | 48 | 246 | 0.0 | 1.0 | 0.00 | 0.00 | 0.00 | 99 | 1019.4 |
| 20260509002006 | 48 | 0 | 0.0 | 0.0 | 0.00 | 0.00 | 0.00 | 96 | 1017.2 |
| 20260509002003 | 48 | 248 | 0.0 | 1.0 | 0.00 | 0.00 | 0.00 | 99 | 1019.4 |
| 20260509001505 | 48 | 0 | 0.0 | 0.0 | 0.00 | 0.00 | 0.00 | 96 | 1017.4 |
| 20260509001503 | 48 | 314 | 0.0 | 1.0 | 0.00 | 0.00 | 0.00 | 99 | 1019.4 |
| 20260509001005 | 48 | 0 | 0.0 | 0.0 | 0.00 | 0.00 | 0.00 | 96 | 1017.3 |
| 20260509001003 | 48 | 314 | 0.0 | 1.0 | 0.00 | 0.00 | 0.00 | 98 | 1019.5 |
| 20260509000506 | 48 | 0 | 0.0 | 0.0 | 0.00 | 0.00 | 0.00 | 95 | 1017.2 |
| 20260509000503 | 48 | 225 | 0.0 | 1.0 | 0.00 | 0.00 | 0.00 | 98 | 1019.4 |
| 20260509000009 | 48 | 225 | 1.0 | 2.0 | 0.00 | 0.00 | 0.00 | 98 | 1019.5 |
| 20260509000005 | 48 | 0 | 0.0 | 0.0 | 0.00 | 0.00 | 0.00 | 95 | 1017.4 |
| 20260508235505 | 48 | 0 | 0.0 | 0.0 | 0.00 | 0.00 | 0.00 | 95 | 1017.4 |
| 20260508235502 | 48 | 229 | 1.0 | 2.0 | 0.00 | 0.00 | 0.00 | 98 | 1019.6 |
| 20260508235006 | 48 | 0 | 0.0 | 0.0 | 0.00 | 0.00 | 0.00 | 95 | 1017.3 |
| 20260508234505 | 49 | 0 | 0.0 | 0.0 | 0.00 | 0.00 | 0.00 | 95 | 1017.4 |
| 20260508234503 | 48 | 247 | 1.0 | 2.0 | 0.00 | 0.00 | 0.00 | 98 | 1019.4 |
| 20260508234006 | 49 | 0 | 0.0 | 0.0 | 0.00 | 0.00 | 0.00 | 95 | 1017.3 |
| 20260508234003 | 48 | 225 | 1.0 | 2.0 | 0.00 | 0.00 | 0.00 | 98 | 1019.2 |
| 20260508233505 | 49 | 0 | 0.0 | 0.0 | 0.00 | 0.00 | 0.00 | 95 | 1017.4 |
| 20260508232506 | 49 | 0 | 0.0 | 0.0 | 0.00 | 0.00 | 0.00 | 95 | 1017.3 |
| 20260508232503 | 48 | 225 | 0.0 | 2.0 | 0.00 | 0.00 | 0.00 | 98 | 1019.5 |
| 20260508232005 | 49 | 0 | 0.0 | 0.0 | 0.00 | 0.00 | 0.00 | 95 | 1017.4 |
| 20260508231006 | 49 | 0 | 0.0 | 0.0 | 0.00 | 0.00 | 0.00 | 95 | 1017.3 |
| 20260508231003 | 48 | 0 | 0.0 | 0.0 | 0.00 | 0.00 | 0.00 | 98 | 1019.4 |
| 20260508230505 | 49 | 0 | 0.0 | 0.0 | 0.00 | 0.00 | 0.00 | 95 | 1017.4 |
| 20260508230005 | 49 | 0 | 0.0 | 0.0 | 0.00 | 0.00 | 0.00 | 95 | 1017.5 |
| 20260508225505 | 49 | 0 | 0.0 | 0.0 | 0.00 | 0.00 | 0.00 | 95 | 1017.5 |
| 20260508225503 | 48 | 225 | 0.0 | 1.0 | 0.00 | 0.00 | 0.00 | 98 | 1019.7 |
| 20260508225003 | 48 | 0 | 0.0 | 0.0 | 0.00 | 0.00 | 0.00 | 97 | 1019.5 |
| 20260508224506 | 49 | 0 | 0.0 | 0.0 | 0.00 | 0.00 | 0.00 | 95 | 1017.5 |
| 20260508224502 | 48 | 0 | 0.0 | 0.0 | 0.00 | 0.00 | 0.00 | 97 | 1019.6 |
| 20260508224006 | 49 | 0 | 0.0 | 0.0 | 0.00 | 0.00 | 0.00 | 95 | 1017.3 |
| 20260508224003 | 48 | 135 | 0.0 | 1.0 | 0.00 | 0.00 | 0.00 | 97 | 1019.5 |
| 20260508223503 | 48 | 135 | 0.0 | 1.0 | 0.00 | 0.00 | 0.00 | 97 | 1019.5 |
| 20260508223006 | 49 | 0 | 0.0 | 0.0 | 0.00 | 0.00 | 0.00 | 95 | 1017.5 |
| 20260508223003 | 48 | 0 | 0.0 | 0.0 | 0.00 | 0.00 | 0.00 | 97 | 1019.6 |
| 20260508222005 | 49 | 0 | 0.0 | 0.0 | 0.00 | 0.00 | 0.00 | 95 | 1017.5 |
| 20260508222002 | 48 | 225 | 0.0 | 1.0 | 0.00 | 0.00 | 0.00 | 97 | 1019.8 |
| 20260508221506 | 49 | 0 | 0.0 | 0.0 | 0.00 | 0.00 | 0.00 | 94 | 1017.4 |
| 20260508221503 | 48 | 225 | 1.0 | 2.0 | 0.00 | 0.00 | 0.00 | 97 | 1019.6 |
| 20260508221006 | 49 | 0 | 0.0 | 0.0 | 0.00 | 0.00 | 0.00 | 94 | 1017.5 |
| 20260508221003 | 48 | 234 | 1.0 | 2.0 | 0.00 | 0.00 | 0.00 | 97 | 1019.5 |
| 20260508220505 | 49 | 0 | 0.0 | 0.0 | 0.00 | 0.00 | 0.00 | 94 | 1017.4 |
| 20260508220503 | 48 | 248 | 1.0 | 2.0 | 0.00 | 0.00 | 0.00 | 96 | 1019.4 |
| 20260508220010 | 48 | 251 | 1.0 | 2.0 | 0.00 | 0.00 | 0.00 | 96 | 1019.4 |
| 20260508220006 | 49 | 0 | 0.0 | 0.0 | 0.00 | 0.00 | 0.00 | 94 | 1017.3 |
| 20260508215505 | 49 | 0 | 0.0 | 0.0 | 0.00 | 0.00 | 0.00 | 94 | 1017.3 |
| 20260508215503 | 48 | 238 | 1.0 | 2.0 | 0.00 | 0.00 | 0.00 | 96 | 1019.6 |
| 20260508215006 | 49 | 0 | 0.0 | 0.0 | 0.00 | 0.00 | 0.00 | 94 | 1017.3 |
| 20260508215003 | 48 | 245 | 1.0 | 2.0 | 0.00 | 0.00 | 0.00 | 96 | 1019.5 |
| 20260508214505 | 49 | 0 | 0.0 | 0.0 | 0.00 | 0.00 | 0.00 | 94 | 1017.3 |
| 20260508214502 | 48 | 269 | 0.0 | 1.0 | 0.00 | 0.00 | 0.00 | 96 | 1019.3 |
| 20260508214003 | 48 | 270 | 0.0 | 1.0 | 0.00 | 0.00 | 0.00 | 96 | 1019.4 |
| 20260508213506 | 49 | 0 | 0.0 | 0.0 | 0.00 | 0.00 | 0.00 | 94 | 1017.4 |
| 20260508213503 | 48 | 270 | 0.0 | 1.0 | 0.00 | 0.00 | 0.00 | 96 | 1019.6 |
| 20260508213003 | 48 | 270 | 0.0 | 1.0 | 0.00 | 0.00 | 0.00 | 96 | 1019.6 |
| 20260508212505 | 49 | 0 | 0.0 | 0.0 | 0.00 | 0.00 | 0.00 | 94 | 1017.4 |
| 20260508212503 | 48 | 270 | 0.0 | 1.0 | 0.00 | 0.00 | 0.00 | 95 | 1019.4 |
| 20260508212006 | 49 | 0 | 0.0 | 0.0 | 0.00 | 0.00 | 0.00 | 93 | 1017.4 |
| 20260508212003 | 48 | 270 | 0.0 | 1.0 | 0.00 | 0.00 | 0.00 | 94 | 1019.4 |
| 20260508211506 | 49 | 0 | 0.0 | 0.0 | 0.00 | 0.00 | 0.00 | 93 | 1017.4 |
| 20260508211503 | 48 | 270 | 0.0 | 1.0 | 0.00 | 0.00 | 0.00 | 94 | 1019.5 |
| 20260508211005 | 49 | 0 | 0.0 | 0.0 | 0.00 | 0.00 | 0.00 | 93 | 1017.5 |
| 20260508210505 | 49 | 0 | 0.0 | 0.0 | 0.00 | 0.00 | 0.00 | 93 | 1017.5 |
| 20260508210503 | 48 | 271 | 0.0 | 1.0 | 0.00 | 0.00 | 0.00 | 94 | 1019.5 |
| 20260508210009 | 48 | 271 | 0.0 | 1.0 | 0.00 | 0.00 | 0.00 | 94 | 1019.6 |
| 20260508210005 | 49 | 0 | 0.0 | 0.0 | 0.00 | 0.00 | 0.00 | 93 | 1017.6 |
| 20260508205505 | 49 | 0 | 0.0 | 0.0 | 0.00 | 0.00 | 0.00 | 93 | 1017.5 |
| 20260508205503 | 48 | 266 | 1.0 | 2.0 | 0.00 | 0.00 | 0.00 | 94 | 1019.8 |
| 20260508205003 | 48 | 265 | 0.0 | 2.0 | 0.00 | 0.00 | 0.00 | 94 | 1019.5 |
| 20260508204506 | 49 | 0 | 0.0 | 0.0 | 0.00 | 0.00 | 0.00 | 92 | 1017.6 |
| 20260508204005 | 49 | 0 | 0.0 | 0.0 | 0.00 | 0.00 | 0.00 | 92 | 1017.7 |
| 20260508204003 | 49 | 227 | 1.0 | 2.0 | 0.00 | 0.00 | 0.00 | 93 | 1019.6 |
| 20260508203506 | 49 | 0 | 0.0 | 0.0 | 0.00 | 0.00 | 0.00 | 92 | 1017.6 |
| 20260508203005 | 49 | 0 | 0.0 | 0.0 | 0.00 | 0.00 | 0.00 | 92 | 1017.5 |
| 20260508203002 | 49 | 230 | 1.0 | 1.0 | 0.00 | 0.00 | 0.00 | 93 | 1019.5 |
| 20260508202506 | 49 | 0 | 0.0 | 0.0 | 0.00 | 0.00 | 0.00 | 91 | 1017.4 |
| 20260508202503 | 49 | 232 | 0.0 | 1.0 | 0.00 | 0.00 | 0.00 | 92 | 1019.8 |
| 20260508202005 | 49 | 0 | 0.0 | 0.0 | 0.00 | 0.00 | 0.00 | 91 | 1017.5 |
| 20260508202003 | 49 | 225 | 0.0 | 1.0 | 0.00 | 0.00 | 0.00 | 92 | 1019.6 |
| 20260508201505 | 49 | 0 | 0.0 | 0.0 | 0.00 | 0.00 | 0.00 | 91 | 1017.7 |
| 20260508201503 | 49 | 0 | 0.0 | 0.0 | 0.00 | 0.00 | 0.00 | 92 | 1019.6 |
| 20260508201006 | 49 | 0 | 0.0 | 0.0 | 0.00 | 0.00 | 0.00 | 91 | 1017.4 |
| 20260508201003 | 49 | 0 | 0.0 | 0.0 | 0.00 | 0.00 | 0.00 | 92 | 1019.5 |
| 20260508200505 | 49 | 0 | 0.0 | 0.0 | 0.00 | 0.00 | 0.00 | 90 | 1017.5 |
| 20260508200502 | 49 | 270 | 0.0 | 1.0 | 0.00 | 0.00 | 0.00 | 92 | 1019.4 |
| 20260508200009 | 49 | 273 | 1.0 | 2.0 | 0.00 | 0.00 | 0.00 | 91 | 1019.5 |
| 20260508200006 | 49 | 0 | 0.0 | 0.0 | 0.00 | 0.00 | 0.00 | 90 | 1017.5 |
| 20260508195505 | 49 | 0 | 0.0 | 0.0 | 0.00 | 0.00 | 0.00 | 90 | 1017.6 |
| 20260508195503 | 49 | 274 | 1.0 | 2.0 | 0.00 | 0.00 | 0.00 | 91 | 1019.5 |
| 20260508195006 | 49 | 0 | 0.0 | 0.0 | 0.00 | 0.00 | 0.00 | 90 | 1017.5 |
| 20260508194506 | 49 | 0 | 0.0 | 0.0 | 0.00 | 0.00 | 0.00 | 90 | 1017.5 |
| 20260508194503 | 49 | 270 | 0.0 | 1.0 | 0.00 | 0.00 | 0.00 | 91 | 1019.4 |
| 20260508194005 | 50 | 0 | 0.0 | 0.0 | 0.00 | 0.00 | 0.00 | 90 | 1017.5 |
| 20260508194003 | 49 | 270 | 1.0 | 2.0 | 0.00 | 0.00 | 0.00 | 90 | 1019.5 |
| 20260508193505 | 50 | 0 | 0.0 | 0.0 | 0.00 | 0.00 | 0.00 | 89 | 1017.5 |
| 20260508193503 | 49 | 270 | 1.0 | 2.0 | 0.00 | 0.00 | 0.00 | 90 | 1019.3 |
| 20260508193006 | 50 | 0 | 0.0 | 0.0 | 0.00 | 0.00 | 0.00 | 89 | 1017.4 |
| 20260508193003 | 49 | 270 | 0.0 | 1.0 | 0.00 | 0.00 | 0.00 | 90 | 1019.4 |
| 20260508192505 | 50 | 0 | 0.0 | 0.0 | 0.00 | 0.00 | 0.00 | 89 | 1017.4 |
| 20260508192503 | 49 | 270 | 0.0 | 2.0 | 0.00 | 0.00 | 0.00 | 90 | 1019.4 |
| 20260508192006 | 50 | 0 | 0.0 | 0.0 | 0.00 | 0.00 | 0.00 | 89 | 1017.4 |
| 20260508192003 | 49 | 270 | 1.0 | 2.0 | 0.00 | 0.00 | 0.00 | 89 | 1019.3 |
| 20260508191505 | 50 | 0 | 0.0 | 0.0 | 0.00 | 0.00 | 0.00 | 88 | 1017.5 |
| 20260508191503 | 49 | 255 | 1.0 | 2.0 | 0.00 | 0.00 | 0.00 | 89 | 1019.5 |
| 20260508191005 | 50 | 0 | 0.0 | 0.0 | 0.00 | 0.00 | 0.00 | 87 | 1017.4 |
| 20260508191003 | 49 | 244 | 1.0 | 2.0 | 0.00 | 0.00 | 0.00 | 89 | 1019.3 |
| 20260508190506 | 50 | 0 | 0.0 | 0.0 | 0.00 | 0.00 | 0.00 | 87 | 1017.2 |
| 20260508190009 | 49 | 270 | 1.0 | 2.0 | 0.00 | 0.00 | 0.00 | 88 | 1019.4 |
| 20260508190005 | 50 | 0 | 0.0 | 0.0 | 0.00 | 0.00 | 0.00 | 87 | 1017.3 |
| 20260508185505 | 50 | 0 | 0.0 | 0.0 | 0.00 | 0.00 | 0.00 | 86 | 1017.3 |
| 20260508185006 | 50 | 0 | 0.0 | 0.0 | 0.00 | 0.00 | 0.00 | 86 | 1017.2 |
| 20260508185003 | 50 | 282 | 2.0 | 3.0 | 0.00 | 0.00 | 0.00 | 88 | 1019.3 |
| 20260508184505 | 50 | 0 | 0.0 | 0.0 | 0.00 | 0.00 | 0.00 | 86 | 1017.2 |
| 20260508184503 | 50 | 289 | 2.0 | 3.0 | 0.00 | 0.00 | 0.00 | 88 | 1019.4 |
| 20260508184003 | 50 | 296 | 1.0 | 3.0 | 0.00 | 0.00 | 0.00 | 87 | 1019.1 |
| 20260508183506 | 50 | 0 | 0.0 | 0.0 | 0.00 | 0.00 | 0.00 | 86 | 1017.0 |
| 20260508183503 | 50 | 273 | 1.0 | 2.0 | 0.00 | 0.00 | 0.00 | 87 | 1019.1 |
| 20260508183005 | 50 | 0 | 0.0 | 0.0 | 0.00 | 0.00 | 0.00 | 86 | 1017.0 |
| 20260508183002 | 50 | 283 | 1.0 | 2.0 | 0.00 | 0.00 | 0.00 | 86 | 1019.0 |
| 20260508182505 | 51 | 1 | 0.0 | 1.0 | 0.00 | 0.00 | 0.00 | 86 | 1017.0 |
| 20260508182503 | 50 | 23 | 1.0 | 2.0 | 0.00 | 0.00 | 0.00 | 86 | 1019.0 |
| 20260508182006 | 51 | 337 | 1.0 | 2.0 | 0.00 | 0.00 | 0.00 | 86 | 1016.8 |
| 20260508182003 | 50 | 9 | 1.0 | 2.0 | 0.00 | 0.00 | 0.00 | 86 | 1018.7 |
| 20260508181505 | 51 | 335 | 1.0 | 2.0 | 0.00 | 0.00 | 0.00 | 85 | 1016.7 |
| 20260508181005 | 51 | 270 | 0.0 | 1.0 | 0.00 | 0.00 | 0.00 | 85 | 1016.7 |
| 20260508180506 | 51 | 270 | 1.0 | 2.0 | 0.00 | 0.00 | 0.00 | 85 | 1016.6 |
| 20260508180503 | 50 | 276 | 0.0 | 2.0 | 0.00 | 0.00 | 0.00 | 85 | 1018.6 |
| 20260508180009 | 50 | 357 | 1.0 | 3.0 | 0.00 | 0.00 | 0.00 | 85 | 1018.6 |
| 20260508175506 | 51 | 307 | 2.0 | 3.0 | 0.00 | 0.00 | 0.00 | 85 | 1016.6 |
| 20260508175503 | 50 | 20 | 2.0 | 3.0 | 0.00 | 0.00 | 0.00 | 85 | 1018.6 |
| 20260508175005 | 51 | 323 | 1.0 | 3.0 | 0.00 | 0.00 | 0.00 | 84 | 1016.7 |
| 20260508175003 | 50 | 354 | 2.0 | 2.0 | 0.00 | 0.00 | 0.00 | 84 | 1018.6 |
| 20260508174505 | 51 | 291 | 0.0 | 3.0 | 0.00 | 0.00 | 0.00 | 84 | 1016.6 |
| 20260508173505 | 51 | 359 | 3.0 | 4.0 | 0.00 | 0.00 | 0.00 | 84 | 1016.7 |
| 20260508173503 | 50 | 357 | 2.0 | 4.0 | 0.00 | 0.00 | 0.00 | 84 | 1018.6 |
| 20260508173003 | 50 | 333 | 2.0 | 4.0 | 0.00 | 0.00 | 0.00 | 84 | 1018.5 |
| 20260508172505 | 51 | 298 | 3.0 | 4.0 | 0.00 | 0.00 | 0.00 | 84 | 1016.7 |
| 20260508172503 | 51 | 6 | 3.0 | 4.0 | 0.00 | 0.00 | 0.00 | 84 | 1018.6 |
| 20260508172006 | 51 | 297 | 3.0 | 4.0 | 0.00 | 0.00 | 0.00 | 84 | 1016.5 |
| 20260508171505 | 51 | 313 | 3.0 | 5.0 | 0.00 | 0.00 | 0.00 | 84 | 1016.6 |
| 20260508171503 | 51 | 333 | 3.0 | 8.0 | 0.00 | 0.00 | 0.00 | 83 | 1018.6 |
| 20260508171005 | 51 | 303 | 4.0 | 5.0 | 0.00 | 0.00 | 0.00 | 83 | 1016.7 |
| 20260508171002 | 51 | 359 | 4.0 | 8.0 | 0.00 | 0.00 | 0.00 | 83 | 1018.3 |
| 20260508170505 | 51 | 339 | 3.0 | 6.0 | 0.00 | 0.00 | 0.00 | 83 | 1016.6 |
| 20260508170503 | 51 | 6 | 4.0 | 8.0 | 0.00 | 0.00 | 0.00 | 83 | 1018.4 |
| 20260508170009 | 51 | 330 | 4.0 | 8.0 | 0.00 | 0.00 | 0.00 | 83 | 1018.4 |
| 20260508170005 | 51 | 348 | 4.0 | 6.0 | 0.00 | 0.00 | 0.00 | 83 | 1016.7 |
| 20260508165505 | 51 | 310 | 4.0 | 6.0 | 0.00 | 0.00 | 0.00 | 83 | 1016.6 |
| 20260508165503 | 51 | 295 | 4.0 | 7.0 | 0.00 | 0.00 | 0.00 | 83 | 1018.2 |
| 20260508165006 | 51 | 297 | 4.0 | 5.0 | 0.00 | 0.00 | 0.00 | 83 | 1016.6 |
| 20260508165004 | 51 | 351 | 4.0 | 5.0 | 0.00 | 0.00 | 0.00 | 83 | 1018.4 |
| 20260508164505 | 51 | 323 | 4.0 | 6.0 | 0.00 | 0.00 | 0.00 | 83 | 1016.7 |
| 20260508164503 | 51 | 13 | 4.0 | 6.0 | 0.00 | 0.00 | 0.00 | 83 | 1018.5 |
| 20260508163505 | 52 | 321 | 4.0 | 6.0 | 0.00 | 0.00 | 0.00 | 82 | 1016.6 |
| 20260508163503 | 51 | 341 | 4.0 | 6.0 | 0.00 | 0.00 | 0.00 | 83 | 1018.3 |
| 20260508163005 | 52 | 303 | 4.0 | 6.0 | 0.00 | 0.00 | 0.00 | 82 | 1016.7 |
| 20260508163003 | 51 | 354 | 4.0 | 6.0 | 0.00 | 0.00 | 0.00 | 82 | 1018.4 |
| 20260508162506 | 52 | 294 | 3.0 | 4.0 | 0.00 | 0.00 | 0.00 | 82 | 1016.4 |
| 20260508162503 | 52 | 331 | 3.0 | 4.0 | 0.00 | 0.00 | 0.00 | 82 | 1018.5 |
| 20260508162005 | 52 | 305 | 3.0 | 5.0 | 0.00 | 0.00 | 0.00 | 82 | 1016.4 |
| 20260508162003 | 52 | 310 | 3.0 | 5.0 | 0.00 | 0.00 | 0.00 | 82 | 1018.5 |
| 20260508161505 | 52 | 298 | 4.0 | 5.0 | 0.00 | 0.00 | 0.00 | 82 | 1016.5 |
| 20260508161503 | 52 | 299 | 3.0 | 5.0 | 0.00 | 0.00 | 0.00 | 81 | 1018.3 |
| 20260508161006 | 52 | 280 | 4.0 | 5.0 | 0.00 | 0.00 | 0.00 | 81 | 1016.6 |
| 20260508161003 | 52 | 280 | 3.0 | 5.0 | 0.00 | 0.00 | 0.00 | 81 | 1018.4 |
| 20260508160503 | 52 | 290 | 3.0 | 5.0 | 0.00 | 0.00 | 0.00 | 80 | 1018.3 |
| 20260508160005 | 52 | 292 | 3.0 | 4.0 | 0.00 | 0.00 | 0.00 | 81 | 1016.4 |
| 20260508155503 | 52 | 291 | 4.0 | 7.0 | 0.00 | 0.00 | 0.00 | 80 | 1018.4 |
| 20260508155005 | 52 | 309 | 5.0 | 6.0 | 0.00 | 0.00 | 0.00 | 82 | 1016.5 |
| 20260508155003 | 52 | 287 | 5.0 | 7.0 | 0.00 | 0.00 | 0.00 | 81 | 1018.5 |
| 20260508154505 | 53 | 288 | 4.0 | 6.0 | 0.00 | 0.00 | 0.00 | 82 | 1016.4 |
| 20260508154503 | 52 | 283 | 4.0 | 7.0 | 0.00 | 0.00 | 0.00 | 82 | 1018.1 |
| 20260508154003 | 52 | 284 | 3.0 | 4.0 | 0.00 | 0.00 | 0.00 | 82 | 1018.2 |
| 20260508153505 | 52 | 309 | 3.0 | 4.0 | 0.00 | 0.00 | 0.00 | 82 | 1016.5 |
| 20260508153503 | 52 | 296 | 3.0 | 4.0 | 0.00 | 0.00 | 0.00 | 82 | 1018.3 |
| 20260508153005 | 52 | 292 | 4.0 | 7.0 | 0.00 | 0.00 | 0.00 | 82 | 1016.3 |
| 20260508152503 | 52 | 284 | 4.0 | 7.0 | 0.00 | 0.00 | 0.00 | 82 | 1018.2 |
| 20260508152006 | 52 | 293 | 4.0 | 5.0 | 0.00 | 0.00 | 0.00 | 82 | 1016.4 |
| 20260508152003 | 52 | 270 | 4.0 | 5.0 | 0.00 | 0.00 | 0.00 | 81 | 1018.1 |
| 20260508151502 | 52 | 290 | 4.0 | 5.0 | 0.00 | 0.00 | 0.00 | 81 | 1018.1 |
| 20260508151003 | 52 | 302 | 4.0 | 5.0 | 0.00 | 0.00 | 0.00 | 81 | 1018.3 |
| 20260508150506 | 52 | 292 | 5.0 | 8.0 | 0.00 | 0.00 | 0.00 | 82 | 1016.5 |
| 20260508150005 | 53 | 277 | 5.0 | 8.0 | 0.00 | 0.00 | 0.00 | 82 | 1016.4 |
| 20260508145506 | 53 | 257 | 5.0 | 6.0 | 0.00 | 0.00 | 0.00 | 82 | 1016.4 |
| 20260508145503 | 52 | 280 | 4.0 | 5.0 | 0.00 | 0.00 | 0.00 | 82 | 1018.2 |
| 20260508145005 | 53 | 255 | 5.0 | 6.0 | 0.00 | 0.00 | 0.00 | 82 | 1016.4 |
| 20260508145003 | 52 | 270 | 4.0 | 6.0 | 0.00 | 0.00 | 0.00 | 81 | 1018.3 |
| 20260508144505 | 53 | 267 | 4.0 | 6.0 | 0.00 | 0.00 | 0.00 | 82 | 1016.4 |
| 20260508144503 | 52 | 290 | 4.0 | 6.0 | 0.00 | 0.00 | 0.00 | 82 | 1018.2 |
| 20260508144006 | 52 | 293 | 4.0 | 7.0 | 0.00 | 0.00 | 0.00 | 82 | 1016.3 |
| 20260508144003 | 52 | 289 | 4.0 | 5.0 | 0.00 | 0.00 | 0.00 | 82 | 1018.1 |
| 20260508143505 | 52 | 297 | 5.0 | 7.0 | 0.00 | 0.00 | 0.00 | 83 | 1016.4 |
| 20260508143005 | 52 | 288 | 5.0 | 7.0 | 0.00 | 0.00 | 0.00 | 83 | 1016.4 |
| 20260508142505 | 52 | 271 | 4.0 | 7.0 | 0.00 | 0.00 | 0.00 | 84 | 1016.4 |
| 20260508142503 | 52 | 304 | 4.0 | 7.0 | 0.00 | 0.00 | 0.00 | 84 | 1018.3 |
| 20260508142006 | 52 | 283 | 4.0 | 5.0 | 0.00 | 0.00 | 0.00 | 83 | 1016.4 |
| 20260508142003 | 51 | 300 | 4.0 | 5.0 | 0.00 | 0.00 | 0.00 | 84 | 1018.1 |
| 20260508141505 | 52 | 283 | 4.0 | 5.0 | 0.00 | 0.00 | 0.00 | 84 | 1016.4 |
| 20260508141503 | 51 | 295 | 3.0 | 5.0 | 0.00 | 0.00 | 0.00 | 84 | 1018.2 |
| 20260508141003 | 51 | 285 | 3.0 | 4.0 | 0.00 | 0.01 | 0.00 | 84 | 1018.2 |
| 20260508140506 | 52 | 278 | 3.0 | 3.0 | 0.00 | 0.00 | 0.00 | 84 | 1016.4 |
| 20260508140503 | 51 | 285 | 3.0 | 4.0 | 0.00 | 0.01 | 0.00 | 84 | 1018.2 |
| 20260508140009 | 51 | 296 | 3.0 | 4.0 | 0.00 | 0.01 | 0.00 | 84 | 1018.1 |
| 20260508140005 | 52 | 323 | 3.0 | 4.0 | 0.00 | 0.00 | 0.00 | 84 | 1016.5 |
| 20260508135506 | 52 | 327 | 3.0 | 5.0 | 0.00 | 0.00 | 0.00 | 83 | 1016.5 |
| 20260508135503 | 51 | 302 | 3.0 | 4.0 | 0.00 | 0.01 | 0.00 | 84 | 1018.4 |